Regional Weather Roundup
Issued by NWS

Home | Current Version | Previous Version | Graphics & Text | Print | Product List | Glossary On
Versions: 1 2 3 4 5 6 7 8 9 10 11 12 13 14 15 16 17 18 19 20 21 22 23 24 25 26 27 28 29 30 31 32 33 34 35 36 37 38 39 40 41 42 43 44 45 46 47 48 49 50
000
ASUS43 KMPX 220110
RWRMN
WEATHER ROUNDUP FOR MINNESOTA
NATIONAL WEATHER SERVICE TWIN CITIES/CHANHASSEN MN
700 PM CST WED FEB 21 2018


NOTE: "FAIR" INDICATES FEW OR NO CLOUDS BELOW 12,000 FEET WITH NO
SIGNIFICANT WEATHER AND/OR OBSTRUCTIONS TO VISIBILITY. N/A MEANS
CURRENT SKY AND/OR WEATHER CONDITIONS ARE NOT AVAILABLE.

MNZ060>063-068>070-220200-
   Twin Cities Metro

CITY           SKY/WX    TMP DP  RH WIND       PRES   REMARKS
TWIN CITIES    FAIR      17   4  56 SW6       30.65R WCI   9
ST PAUL        FAIR      16   3  56 S5        30.67R WCI   9
CRYSTAL        FAIR      15   1  53 SW5       30.63R WCI   8
BLAINE         PTCLDY    16   1  53 CALM      30.62F
LAKEVILLE        N/A     10   7  85 CALM      30.65R
EDEN PRAIRIE   FAIR      14   2  58 S6        30.64R WCI   5
SOUTH ST PAUL  FAIR      16   6  63 S3        30.65R
LAKE ELMO      FAIR      12   5  73 S7        30.65R WCI   2
$$
MNZ001>005-007-008-013>017-022>024-027-028-220200-
   Northwest Minnesota

CITY           SKY/WX    TMP DP  RH WIND       PRES   REMARKS
BEMIDJI        FAIR      13  -4  46 SW5       30.49R WCI   5
HALLOCK        FAIR       1  -6  71 SW5       30.49F WCI  -8
ROSEAU         FAIR       3  -2  78 SW6       30.49R WCI  -8
WARROAD        FAIR       3  -4  72 SW5       30.49R WCI  -6
THIEF RVR FALL FAIR       0  -5  79 SW9       30.52S WCI -15
CROOKSTON      FAIR       1  -4  78 S8        30.54S WCI -12
FOSSTON        FAIR      -6 -11  77 S8        30.52R WCI -21
DETROIT LAKES  FAIR       9  -4  56 CALM      30.53S
MOORHEAD       FAIR       3  -2  78 S8        30.55S WCI -10
PARK RAPIDS    FAIR       4  -7  60 SW7       30.51R WCI  -8
MAHNOMEN       FAIR       1  -7  68 S9        30.51S WCI -14
$$
MNZ006-009>011-018-025>026-220200-
   North Central Minnesota

CITY           SKY/WX    TMP DP  RH WIND       PRES   REMARKS
BAUDETTE       FAIR       6  -5  60 W5        30.47S WCI  -3
FLAG ISLAND    FAIR       5  -4  66 SW14      30.46R WCI -12
INTL FALLS     FAIR      13  -1  54 W8        30.47R WCI   2
WASKISH        FAIR       0  -8  71 W7        30.50R WCI -13
BIG FORK       FAIR       9  -2  61 SW5       30.49R WCI   0
LONGVILLE      FAIR       7  -2  66 CALM      30.53R
GRAND RAPIDS   FAIR      14  -1  51 S6        30.54R WCI   5
CRANE LAKE     FAIR       3   0  85 CALM      30.51R
ORR            FAIR      16   0  48 S3        30.46R
COOK             N/A     16   1  53 SW5       30.49S WCI   9
WALKER         FAIR      11  -4  50 SW6       30.51R WCI   2
$$
MNZ012-019>021-037-220200-
   Northeast Minnesota

CITY           SKY/WX    TMP DP  RH WIND       PRES   REMARKS
DULUTH         FAIR      16   2  54 SW9       30.53R WCI   4
ELY            FAIR      12   1  62 SW3       30.49S
HIBBING        FAIR       7   0  73 CALM      30.50R
EVELETH        FAIR     N/A N/A N/A SW6       30.51S
DULUTH HARBOR  FAIR      18   5  57 S9        30.60R WCI   6
TWO HARBORS    FAIR      18   7  62 SW6       30.53R WCI   9
SILVER BAY     FAIR      14   9  79 CALM      30.53
GRAND MARAIS     N/A     19   5  54 NW5       30.56R WCI  12
G MARAIS ARPRT FAIR      10   1  67 CALM      30.48R
$$
MNZ029>031-032-039>041-046>048-054>057-064-220200-
   West Central Minnesota

CITY           SKY/WX    TMP DP  RH WIND       PRES   REMARKS
FERGUS FALLS   FAIR      10   0  61 SE6       30.56S WCI   1
WHEATON        FAIR      12  -2  52 S7        30.58S WCI   2
MORRIS         FAIR       7  -2  66 SE7       30.56S WCI  -5
ALEXANDRIA     FAIR       8  -2  63 S5        30.55R WCI   0
ELBOW LAKE     FAIR       7   1  75 E6        30.55S WCI  -3
WADENA         FAIR       9  -2  61 SW3       30.54S
GLENWOOD       FAIR       5  -2  72 S7        30.57R WCI  -7
APPLETON       FAIR      12   1  62 S5        30.59R WCI   4
BENSON         FAIR      10   0  61 S3        30.60S
ORTONVILLE     FAIR       9  -2  61 S5        30.57R WCI   0
MADISON        FAIR      12   3  67 S5        30.58F WCI   4
WILLMAR        FAIR       9   1  72 CALM      30.61F
$$
MNZ033>034-036-042>043-049>051-058-059-220200-
   Central Minnesota

CITY           SKY/WX    TMP DP  RH WIND       PRES   REMARKS
ST CLOUD       FAIR      10  -1  61 SE3       30.60R
SAUK CENTRE    FAIR       6  -3  66 S3        30.58R
PAYNESVILLE    FAIR      11   1  64 SW5       30.60R WCI   3
AITKIN         FAIR      10  -2  56 S6        30.55R WCI   1
PINE RIVER     FAIR      10   0  61 CALM      30.56R
BRAINERD       FAIR      11  -1  58 S7        30.56R WCI   0
STAPLES        FAIR       7  -6  56 S3        30.55R
LONG PRAIRIE   FAIR       5   0  78 CALM      30.57R
LITTLE FALLS   FAIR      10  -8  44 CALM      30.59S
LITCHFIELD     FAIR      10   1  67 CALM      30.61S
BUFFALO        FAIR      14   2  61 CALM      30.63S
MAPLE LAKE     FAIR      10   2  70 CALM      30.62S
HUTCHINSON     FAIR      11   2  68 CALM      30.63R
$$
MNZ037-044-045-052-053-220200-
   East Central Minnesota

CITY           SKY/WX    TMP DP  RH WIND       PRES   REMARKS
PRINCETON      FAIR      12   0  57 CALM      30.61R
CAMBRIDGE        N/A     10   0  61 CALM      30.62S
RUSH CITY      FAIR      13   0  55 S3        30.61F
MOOSE LAKE     FAIR      14   1  57 S5        30.56R WCI   6
HINCKLEY       FAIR      12   1  62 S3        30.60S
CLOQUET        FAIR      16   0  48 SW6       30.54S WCI   7
MCGREGOR       FAIR      14   1  57 S3        30.56R
$$
MNZ071>073-080-081-089-090-097-098-220200-
   Southwest Minnesota

CITY           SKY/WX    TMP DP  RH WIND       PRES   REMARKS
MONTEVIDEO     FAIR      12   0  57 CALM      30.59F
GRANITE FALLS  FAIR      12   3  67 SE5       30.61S WCI   4
CANBY          FAIR      12   2  65 CALM      30.58F
MARSHALL       FAIR       9   2  73 S5        30.59R WCI   1
REDWOOD FALLS  FAIR      12   2  64 S3        30.60F
OLIVIA         FAIR      12   3  67 S5        30.60S WCI   4
PIPESTONE      FAIR      10   1  67 S5        30.53S WCI   2
WORTHINGTON    CLOUDY    13   8  81 SE5       30.57R WCI   5
JACKSON        CLOUDY    14   7  73 E5        30.58R WCI   6
TRACY          FAIR       9   3  77 S3        30.57S
SLAYTON        FAIR      10   4  78 S3        30.56R
$$
MNZ065>067-074>077-082>085-091>093-220200-
   South Central Minnesota

CITY           SKY/WX    TMP DP  RH WIND       PRES   REMARKS
MANKATO        FAIR      13   2  61 SE3       30.64S
NEW ULM        FAIR      10   3  72 SE5       30.62S WCI   2
ST JAMES       FAIR      14   9  79 CALM      30.63S
FAIRMONT       MOCLDY    13   5  70 E3        30.63R
GLENCOE        FAIR      14   6  68 S3        30.63R
FARIBAULT      FAIR      12   7  79 CALM      30.64R
OWATONNA       FAIR      12   7  79 CALM      30.63S
WASECA         MOCLDY    14   9  79 CALM      30.64F
ALBERT LEA     CLOUDY    18  12  79 CALM      30.61F
$$
MNZ078>079-086>088-094>096-220200-
   Southeast Minnesota

CITY           SKY/WX    TMP DP  RH WIND       PRES   REMARKS
ROCHESTER      FAIR      17   8  67 CALM      30.63R
RED WING       FAIR      12   1  62 CALM      30.67R
STANTON        FAIR      13   7  79 S3        30.64R
DODGE CENTER   FAIR      14   9  79 CALM      30.62S
WINONA         FAIR      19  14  79 CALM      30.67R
AUSTIN         FAIR      18  10  73 CALM      30.62S
PRESTON        FAIR      18  11  76 CALM      30.63R
$$
ABBREVIATIONS USED IN REMARKS
   TC - TEMPERATURES IN CELSIUS
  WCI - WIND CHILL INDEX
   HX - HEAT INDEX
  VSB - VISIBILITY
$$




USA.gov is the U.S. government's official web portal to all federal, state and local government web resources and services.